sat.trackr.live / text

‹ back to catalog

STARLINK-34115

NORAD 63972 · 2025-099W

PAYLOAD ACTIVE UNKNOWN

§ Identity

Operator
Country
US
Launch date
2025-05-13
Launch site
AFETR
Launch vehicle
Mass (kg)
RCS (m²)

Purposes: comms

External: N2YO · Heavens-Above · Gunter

§ Orbital elements

Epoch: 2026-05-25T03:53:19.250304Z

Period
94.27 min
Inclination
42.9979°
Eccentricity
0.0000669
Mean motion
15.27593250 rev/d
Perigee alt
482.6 km
Apogee alt
483.5 km
Semi-major
6,861.1 km
B*
7.1163e-4
RAAN
100.7129°
Arg perigee
238.2725°
Mean anomaly
121.8062°
Rev number
5,907

§ Raw data

STARLINK-341151 63972U 25099W   26145.16202836  .00019380  00000+0  71163-3 0  99992 63972  42.9979 100.7129 0000669 238.2725 121.8062 15.27593250 59079

JSON: /api/v1/satellites/63972 · /tle

For live sub-satellite position, see the globe view (requires WebGL).

§ Visibility from observer

Set your observer location to see the next 7 days of passes ≥ 10°. The values pass through the URL so the page stays shareable.

No JS? Fill the form by hand. The geolocation button needs JavaScript.